Location: Allie Creek
(37.5926°N, 89.8526°W)
Time: 23:27:10
(UTC+00:00)

Meteor 1-27 Rocket - Pass Details

Date: 16 April 2024
Orbit: 829 x 909 km, 81.3° (Epoch: 28 May)

Event Time Altitude Azimuth Distance (km) Brightness Sun altitude
Exits shadow 07:52:25 32° 82° (E) 1,457 5.1 -35.2°
Drops below altitude 10° 07:57:02 10° 29° (NNE) 2,517 7.0 -34.7°
Sets 07:59:40 0° 20° (NNE) 3,445 7.8 -34.4°
